BANGABANDHUSAT-1 (43463 NORAD) Tracking and Keplerian Element Data

This shows tracking and keplerian element data for the satellite.

Feedback or suggestion? Click here.




ElementValue
Catalog43463
NameBANGABANDHUSAT-1
Epoch Orbit698
Epoch Day91.89146453
Epoch Year2020
RAAN191.0234
Inclination0.018
Eccentricity0.0002327
Argument of Perigee197.5858
Mean Anonmoly241.1241
Mean Motion1.00267612
Decay Rate-3.66E-06
L11 43463U 18044A 20091.89146453 -.00000366 00000-0 00000+0 0 9994
L22 43463 0.0180 191.0234 0002327 197.5858 241.1241 1.00267612 6981

Live tracking and technical data element details for BANGABANDHUSAT-1 (NORAD 43463). BANGABANDHUSAT-1 can be tracked NOW for your location showing map with azimuth and elevation plus other details from your city location.

Track the satellite on the map from your city or location and see movement details for azimuth, elevation, latitude, longitude, range, height, and movement on the map or in text.







IsCatalogInMostPopularTable: catalog: 43463, numindb: 342
Update: records affected: 1



GetName: 43463 BANGABANDHUSAT-1

Hit Count: updated at: Fri, 03 Apr 2020 07:33:06 GMT